Station CRYV2 - 8638595 - South Craney Island, VA Image indicating link to RSS feed of recent meteorological observations for station CRYV2


Conditions at CRYV2 as of
(9:30 pm EDT on 06/20/2024)
0130 GMT on 06/21/2024:
     

Click on the graph icon in the table below to see a time series plot of the last five days of that observation.

5-day plot - Wind Direction Wind Direction (WDIR):SSE ( 150 deg true )
5-day plot - Wind Speed Wind Speed (WSPD): 11.1 kts
5-day plot - Wind Gust Wind Gust (GST): 13.0 kts
5-day plot - Atmospheric Pressure Atmospheric Pressure (PRES):30.27 in
5-day plot - Air Temperature Air Temperature (ATMP): 77.4 °F
5-day plot - Wind Speed at 10 Meters Wind Speed at 10 meters (WSPD10M): 11.7 kts
5-day plot - Wind Speed at 20 Meters Wind Speed at 20 meters (WSPD20M): 11.7 kts
5-day plot -  Wind Speed, Wind Gust and Atmospheric Pressure Combined plot of Wind Speed, Gust, and Air Pressure
NOS Water Level Observation Network Water Level
Previous observations
TIME
(EDT)
5-day plot - Wind Direction
WDIR
 
5-day plot - Wind Speed
WSPD
kts
5-day plot - Wind Gust
GST
kts
5-day plot - Wave Height
WVHT
ft
5-day plot - Dominant Wave Period
DPD
sec
5-day plot - Average Wave Period
APD
sec
5-day plot - Mean Wave Direction
MWD
 
5-day plot - Atmospheric Pressure
PRES
in
5-day plot - Pressure Tendency
PTDY
in
5-day plot - Air Temperature
ATMP
°F
5-day plot - Water Temperature
WTMP
°F
5-day plot - Dew Point
DEWP
°F
5-day plot - Salinity
SAL
psu
5-day plot - Visibility
VIS
nmi
5-day plot - Tide (above MLLW)
TIDE
ft
2024-06-20 09:24 pmSSE 11.1 13.0----30.27- 77.5-----
2024-06-20 09:18 pm SE 9.9 13.0----30.27- 77.7-----
2024-06-20 09:12 pm SE 9.9 12.0----30.27- 77.9-----
2024-06-20 09:06 pm SE 7.0 11.1----30.27- 77.9-----
2024-06-20 09:00 pmSSE 8.0 11.1----30.27+0.01 78.1-----
2024-06-20 08:54 pmSSE 8.0 11.1----30.27- 78.3-----
2024-06-20 08:48 pm SE 11.1 13.0----30.27- 78.1-----
2024-06-20 08:42 pmSSE 9.9 13.0----30.27- 78.3-----
2024-06-20 08:36 pm SE 11.1 12.0----30.27- 78.4-----
2024-06-20 08:30 pmSSE 11.1 13.0----30.27- 78.4-----
2024-06-20 08:24 pm SE 9.9 13.0----30.27- 78.8-----
2024-06-20 08:18 pm SE 8.9 12.0----30.27- 78.8-----
2024-06-20 08:12 pmSSE 8.0 12.0----30.27- 79.0-----
2024-06-20 08:06 pmSSE 9.9 12.0----30.27- 79.3-----
2024-06-20 08:00 pmSSE 8.9 12.0----30.27-0.01 79.5-----
2024-06-20 07:54 pm SE 9.9 13.0----30.27- 79.7-----
2024-06-20 07:48 pm SE 9.9 14.0----30.27- 79.9-----
2024-06-20 07:42 pmSSE 11.1 13.0----30.27- 80.1-----
2024-06-20 07:36 pm SE 12.0 14.0----30.27- 80.1-----
2024-06-20 07:30 pm SE 8.9 13.0----30.27- 80.2-----
2024-06-20 07:24 pmSSE 11.1 13.0----30.27- 80.4-----
2024-06-20 07:00 pmSSE 9.9 12.0----30.27-0.03 81.0-----
2024-06-20 06:54 pm SE 8.9 12.0----30.26- 81.1-----
2024-06-20 06:48 pm SE 7.0 11.1----30.27- 81.7-----
2024-06-20 06:42 pm SE 11.1 13.0----30.26- 81.1-----
2024-06-20 06:36 pm SE 9.9 14.0----30.27- 81.3-----
2024-06-20 06:30 pmSSE 11.1 12.0----30.27-------
2024-06-20 06:24 pm SE 8.9 12.0----30.27-------
2024-06-20 06:18 pmSSE 8.9 14.0----30.27-------
2024-06-20 06:12 pm SE 7.0 11.1----30.26-------
2024-06-20 06:06 pm SE 8.9 13.0----30.26-------
2024-06-20 06:00 pmSSE 9.9 12.0----30.26-0.05 81.7-----
2024-06-20 05:54 pm SE 8.9 12.0----30.26- 82.0-----
2024-06-20 05:48 pmSSE 12.0 13.0----30.26- 81.9-----
2024-06-20 05:42 pmSSE 9.9 12.0----30.27- 81.9-----
2024-06-20 05:36 pm SE 7.0 11.1----30.27- 82.8-----
2024-06-20 05:30 pmSSE 8.9 11.1----30.27- 83.1-----
2024-06-20 05:24 pmSSE 9.9 12.0----30.27- 83.1-----
2024-06-20 05:18 pmSSE 8.0 9.9----30.27- 82.8-----
2024-06-20 05:12 pmSSE 8.9 11.1----30.28- 82.6-----
2024-06-20 05:06 pmSSE 8.9 11.1----30.28- 82.8-----
2024-06-20 05:00 pm SE 9.9 14.0----30.28-0.04 82.4-----
2024-06-20 04:54 pmSSE 8.9 12.0----30.28- 82.9-----
2024-06-20 04:48 pmSSE 8.0 11.1----30.28- 82.6-----
2024-06-20 04:42 pmSSE 8.0 11.1----30.28- 82.4-----
2024-06-20 04:36 pmSSE 9.9 14.0----30.29- 82.4-----
2024-06-20 04:30 pmSSE 7.0 8.9----30.29- 82.8-----
2024-06-20 04:24 pm SE 6.0 11.1----30.29- 82.8-----
2024-06-20 04:18 pmSSE 8.0 8.9----30.29- 82.6-----
2024-06-20 04:12 pm E 8.9 11.1----30.29- 82.0-----
2024-06-20 04:06 pmESE 8.9 12.0----30.30- 82.0-----
2024-06-20 04:00 pm E 7.0 13.0----30.30-0.04 82.4-----
2024-06-20 03:54 pm E 6.0 11.1----30.30- 82.6-----
2024-06-20 03:48 pm E 9.9 13.0----30.30- 82.2-----
2024-06-20 03:42 pmESE 8.9 12.0----30.30- 82.4-----
2024-06-20 03:36 pm E 7.0 9.9----30.30- 82.4-----
2024-06-20 03:30 pmESE 6.0 9.9----30.31-------
2024-06-20 03:24 pm E 4.1 6.0----30.31-------
2024-06-20 03:18 pm W 1.0 6.0----30.31- 82.4-----
2024-06-20 03:12 pm SE 5.1 7.0----30.31- 82.0-----
2024-06-20 03:06 pmSSE 7.0 9.9----30.31- 82.4-----
2024-06-20 03:00 pm SE 4.1 8.0----30.31-0.04 82.2-----
2024-06-20 02:54 pm E 11.1 22.0----30.31- 82.0-----
2024-06-20 02:48 pmSSE 5.1 6.0----30.31- 82.6-----
2024-06-20 02:42 pm NE 1.9 8.0----30.32- 81.9-----
2024-06-20 02:36 pm E 6.0 8.9----30.32- 81.7-----
2024-06-20 02:30 pm E 7.0 13.0----30.32- 81.7-----
2024-06-20 02:24 pm E 9.9 13.0----30.32- 81.3-----
2024-06-20 02:18 pmESE 7.0 14.0----30.32- 81.5-----
2024-06-20 02:12 pmENE 7.0 8.9----30.32- 81.1-----
2024-06-20 02:06 pmENE 4.1 9.9----30.32- 81.1-----
2024-06-20 02:00 pmENE 8.9 14.0----30.32-0.04 80.2-----
2024-06-20 01:54 pmENE 9.9 12.0----30.32- 80.6-----
2024-06-20 01:48 pm NE 9.9 12.0----30.32- 80.1-----
2024-06-20 01:42 pmENE 9.9 12.0----30.32- 80.2-----
2024-06-20 01:36 pm NE 9.9 12.0----30.32- 80.1-----
2024-06-20 01:30 pmENE 9.9 13.0----30.32- 79.9-----
2024-06-20 01:24 pm NE 12.0 13.0----30.33- 79.7-----
2024-06-20 01:18 pm NE 11.1 14.0----30.33- 79.7-----
2024-06-20 01:12 pm NE 8.9 13.0----30.33- 79.7-----
2024-06-20 01:06 pm NE 11.1 13.0----30.33- 79.3-----
2024-06-20 01:00 pm NE 9.9 12.0----30.33-0.02 79.3-----
2024-06-20 12:54 pm NE 8.9 11.1----30.34- 79.2-----
2024-06-20 12:48 pm NE 8.9 11.1----30.34- 79.3-----
2024-06-20 12:42 pm NE 6.0 7.0----30.35- 79.5-----
2024-06-20 12:36 pm N 6.0 8.9----30.35- 79.5-----
2024-06-20 12:30 pmNNW 4.1 6.0----30.35- 79.9-----
2024-06-20 12:24 pmNNE 2.9 6.0----30.35- 79.5-----
2024-06-20 12:18 pmNNW 4.1 7.0----30.35- 80.1-----
2024-06-20 12:12 pmENE 1.9 5.1----30.35- 80.2-----
2024-06-20 12:06 pm N 2.9 4.1----30.35- 80.1-----
2024-06-20 12:00 pmENE 1.9 2.9----30.35-0.01 80.8-----
2024-06-20 11:54 am- 0.0 2.9----30.35- 79.9-----
2024-06-20 11:48 amNNW 2.9 6.0----30.35- 79.3-----
2024-06-20 11:42 am N 2.9 5.1----30.35- 79.0-----
2024-06-20 11:36 am N 4.1 5.1----30.35- 79.3-----
2024-06-20 11:30 amNNW 2.9 5.1----30.35- 79.3-----
2024-06-20 11:24 am E 1.9 4.1----30.35- 79.3-----
2024-06-20 11:18 amWSW 1.9 2.9----30.35- 79.0-----
2024-06-20 11:12 am N 4.1 6.0----30.35- 78.6-----
2024-06-20 11:06 amNNW 4.1 7.0----30.35- 78.4-----
2024-06-20 11:00 am N 5.1 6.0----30.35+0.00 78.3-----
2024-06-20 10:54 am N 5.1 6.0----30.35- 77.9-----
2024-06-20 10:48 am N 4.1 5.1----30.35- 77.7-----
2024-06-20 10:42 am N 4.1 5.1----30.35- 77.9-----
2024-06-20 10:36 am N 4.1 6.0----30.36- 77.9-----
2024-06-20 10:30 am N 4.1 5.1----30.36- 77.9-----
2024-06-20 10:24 am N 4.1 5.1----30.36- 77.9-----
2024-06-20 10:18 amNNE 2.9 5.1----30.36- 78.6-----
2024-06-20 10:12 am N 4.1 5.1----30.36- 78.1-----
2024-06-20 10:06 am N 2.9 5.1----30.36- 77.5-----
2024-06-20 10:00 am N 4.1 6.0----30.36+0.02 77.5-----
2024-06-20 09:54 am N 4.1 5.1----30.36- 77.9-----
2024-06-20 09:48 am N 2.9 4.1----30.36- 78.1-----
2024-06-20 09:42 amNNE 1.9 2.9----30.36- 78.4-----
2024-06-20 09:36 am NE 1.0 1.9----30.36- 79.5-----
2024-06-20 09:30 amENE 1.0 1.9----30.36- 79.3-----
2024-06-20 09:24 amNNE 2.9 4.1----30.36- 78.3-----
2024-06-20 09:18 amNNE 1.9 2.9----30.36- 78.1-----
2024-06-20 09:12 amNNE 1.9 2.9----30.36- 77.7-----
2024-06-20 09:06 amNNE 2.9 4.1----30.36- 76.8-----
2024-06-20 09:00 amNNE 1.9 2.9----30.36+0.03 77.2-----
2024-06-20 08:54 am N 1.9 2.9----30.36- 77.0-----
2024-06-20 08:48 amNNE 1.9 2.9----30.36- 77.0-----
2024-06-20 08:42 amNNE 1.9 1.9----30.36- 77.5-----
2024-06-20 08:36 amENE 1.9 1.9----30.36- 79.2-----
2024-06-20 08:30 am NE 1.0 2.9----30.36- 77.5-----
2024-06-20 08:24 amENE 1.9 1.9----30.36- 78.1-----
2024-06-20 08:18 amESE 1.9 2.9----30.36- 77.4-----
2024-06-20 08:12 am SE 2.9 4.1----30.36- 77.5-----
2024-06-20 08:06 amESE 1.9 4.1----30.36- 77.5-----
2024-06-20 08:00 amESE 2.9 5.1----30.36+0.04 77.4-----
2024-06-20 07:54 amESE 2.9 4.1----30.36- 77.0-----
2024-06-20 07:48 am E 4.1 4.1----30.35- 76.6-----
2024-06-20 07:42 amESE 2.9 4.1----30.35- 76.6-----
2024-06-20 07:36 amESE 2.9 4.1----30.35- 76.3-----
2024-06-20 07:30 amESE 2.9 4.1----30.35- 75.9-----
2024-06-20 07:24 amESE 2.9 5.1----30.35- 75.9-----
2024-06-20 07:18 am SE 2.9 5.1----30.35- 75.4-----
2024-06-20 07:12 amESE 4.1 5.1----30.34- 75.4-----
2024-06-20 07:06 amESE 4.1 5.1----30.34- 75.0-----
2024-06-20 07:00 amESE 4.1 4.1----30.34+0.02 75.0-----
2024-06-20 06:54 am E 4.1 4.1----30.34- 74.7-----
2024-06-20 06:48 amESE 4.1 5.1----30.34- 74.5-----
2024-06-20 06:42 amESE 4.1 5.1----30.34- 74.3-----
2024-06-20 06:36 amESE 4.1 5.1----30.34- 73.9-----
2024-06-20 06:30 amESE 4.1 5.1----30.34- 73.9-----
2024-06-20 06:24 amESE 4.1 5.1----30.34- 73.6-----
2024-06-20 06:18 amESE 4.1 5.1----30.33- 73.4-----
2024-06-20 06:12 amESE 4.1 5.1----30.33- 73.4-----
2024-06-20 06:06 amESE 4.1 4.1----30.33- 73.2-----
2024-06-20 06:00 amESE 2.9 4.1----30.33+0.02 73.2-----
2024-06-20 05:54 amESE 4.1 5.1----30.33- 73.2-----
2024-06-20 05:48 amESE 2.9 4.1----30.33- 73.4-----
2024-06-20 05:42 amESE 1.9 5.1----30.33- 73.4-----
2024-06-20 05:36 amESE 2.9 4.1----30.32- 73.4-----
2024-06-20 05:30 amESE 4.1 5.1----30.32- 73.0-----
2024-06-20 05:24 amESE 4.1 5.1----30.32- 73.0-----
2024-06-20 05:18 amESE 5.1 5.1----30.32- 73.0-----
2024-06-20 05:12 amESE 5.1 5.1----30.32- 73.2-----
2024-06-20 05:06 amESE 5.1 6.0----30.32- 73.4-----
2024-06-20 05:00 amESE 5.1 6.0----30.32+0.01 73.4-----
2024-06-20 04:54 amESE 5.1 5.1----30.32- 73.4-----
2024-06-20 04:48 amESE 5.1 6.0----30.32- 73.4-----
2024-06-20 04:42 amESE 5.1 5.1----30.32- 73.2-----
2024-06-20 04:36 amESE 5.1 6.0----30.32- 73.4-----
2024-06-20 04:30 amESE 5.1 6.0----30.32- 73.6-----
2024-06-20 04:24 amESE 5.1 5.1----30.32- 73.4-----
2024-06-20 04:18 amESE 5.1 5.1----30.32- 73.8-----
2024-06-20 04:12 amESE 2.9 4.1----30.32- 73.6-----
2024-06-20 04:06 amESE 4.1 4.1----30.32- 73.6-----
2024-06-20 04:00 amESE 2.9 4.1----30.32+0.00 73.4-----
2024-06-20 03:54 am E 2.9 4.1----30.32- 73.4-----
2024-06-20 03:48 amESE 2.9 4.1----30.32- 73.4-----
2024-06-20 03:42 am E 2.9 4.1----30.31- 73.6-----
2024-06-20 03:36 am E 2.9 4.1----30.31- 73.4-----
2024-06-20 03:30 am E 2.9 4.1----30.31- 73.4-----
2024-06-20 03:24 am E 1.9 4.1----30.31- 73.4-----
2024-06-20 03:18 am E 2.9 2.9----30.31- 73.4-----
2024-06-20 03:12 amESE 1.9 2.9----30.31- 73.4-----
2024-06-20 03:06 amESE 2.9 4.1----30.31- 73.6-----
2024-06-20 03:00 amESE 2.9 4.1----30.31-0.01 73.6-----
2024-06-20 02:54 am SE 2.9 4.1----30.31- 73.8-----
2024-06-20 02:48 amESE 2.9 4.1----30.31- 73.8-----
2024-06-20 02:42 amESE 4.1 5.1----30.31- 73.6-----
2024-06-20 02:36 amESE 4.1 5.1----30.30- 73.8-----
2024-06-20 02:30 am E 2.9 4.1----30.30- 73.6-----
2024-06-20 02:24 amESE 2.9 4.1----30.30- 73.8-----
2024-06-20 02:18 amESE 2.9 4.1----30.30- 73.8-----
2024-06-20 02:12 amESE 4.1 4.1----30.30- 73.9-----
2024-06-20 02:06 amESE 4.1 4.1----30.30- 73.9-----
2024-06-20 02:00 amESE 4.1 4.1----30.31-0.03 73.9-----
2024-06-20 01:54 amESE 2.9 5.1----30.31- 73.9-----
2024-06-20 01:48 amESE 2.9 4.1----30.31- 73.9-----
2024-06-20 01:42 amESE 2.9 4.1----30.31- 74.1-----
2024-06-20 01:36 amESE 2.9 5.1----30.31- 74.3-----
2024-06-20 01:30 amESE 4.1 5.1----30.31- 74.3-----
2024-06-20 01:24 amESE 4.1 5.1----30.31- 74.5-----
2024-06-20 01:18 amESE 4.1 5.1----30.31- 74.5-----
2024-06-20 01:12 amESE 4.1 5.1----30.31- 74.5-----
2024-06-20 01:06 am SE 4.1 5.1----30.31- 74.7-----
2024-06-20 01:00 am SE 5.1 6.0----30.32-0.02 74.7-----
2024-06-20 12:54 amESE 5.1 6.0----30.32- 74.8-----
2024-06-20 12:48 amESE 5.1 6.0----30.32- 74.8-----
2024-06-20 12:42 amESE 4.1 5.1----30.32- 74.8-----
2024-06-20 12:36 amESE 4.1 5.1----30.32- 74.8-----
2024-06-20 12:30 amESE 4.1 5.1----30.32- 74.8-----
2024-06-20 12:24 amESE 4.1 5.1----30.32- 75.0-----
2024-06-20 12:18 am SE 4.1 5.1----30.32- 75.2-----
2024-06-20 12:12 am SE 4.1 5.1----30.32- 75.0-----
2024-06-20 12:06 am SE 5.1 5.1----30.32- 75.0-----
2024-06-20 12:00 am SE 4.1 5.1----30.32+0.00 74.8-----
2024-06-19 11:54 pmESE 5.1 5.1----30.32- 75.0-----
2024-06-19 11:48 pmESE 5.1 6.0----30.32- 75.0-----
2024-06-19 11:42 pmESE 5.1 6.0----30.32- 75.2-----
2024-06-19 11:36 pmESE 5.1 7.0----30.33- 75.4-----
2024-06-19 11:30 pm SE 6.0 7.0----30.33- 75.4-----
2024-06-19 11:24 pm SE 7.0 8.0----30.33- 75.4-----
2024-06-19 11:18 pm SE 7.0 8.0----30.33- 75.4-----
2024-06-19 11:12 pm SE 7.0 8.0----30.33- 75.6-----
2024-06-19 11:06 pm SE 7.0 8.0----30.33- 75.6-----
2024-06-19 11:00 pm SE 5.1 7.0----30.34+0.02 75.6-----
2024-06-19 10:54 pm SE 5.1 7.0----30.34- 75.7-----
2024-06-19 10:48 pm SE 7.0 8.0----30.34- 75.7-----
2024-06-19 10:42 pm SE 7.0 9.9----30.34- 75.7-----
2024-06-19 10:36 pm SE 7.0 9.9----30.34- 75.7-----
2024-06-19 10:30 pm SE 5.1 8.9----30.34- 75.9-----
2024-06-19 10:24 pm SE 7.0 8.9----30.34- 75.7-----
2024-06-19 10:18 pmESE 8.0 11.1----30.33- 76.1-----
2024-06-19 10:12 pmESE 8.0 9.9----30.33- 76.1-----
2024-06-19 10:06 pm SE 7.0 8.9----30.34- 76.3-----
2024-06-19 10:00 pm SE 8.0 9.9----30.34+0.02 76.5-----
2024-06-19 09:54 pmESE 8.9 9.9----30.33- 76.5-----